SES-10

Last updated on Sat Nov 15 2025 00:02:50 GMT+0000 (Coordinated Universal Time)

1 42432U 17017A 25317.29839205 -.00000274 00000+0 00000+0 0 9999 2 42432 0.0504 79.2601 0002684 160.4781 213.4585 1.00269161 31589
UTC large
Height (km)
Speed (km/s)
/
Latitude / Longitude
Inclination (degrees)
Orbital Period (minutes)
Azimuth
Elevation
Range (km)
Doppler Factor

Next 0 passes for location: London (51.5072 / 0.1276)

Sorry there are no passes over London.